Tracking 28126 objects as of 1-Oct-2023
HD Live streaming from Space Station
objects crossing your sky now

STARLINK-5826

Track STARLINK-5826 now!
10-day predictions
STARLINK-5826 is classified as:


NORAD ID: 55782
Int'l Code: 2023-028AT
Perigee: 575.3 km
Apogee: 579.6 km
Inclination: 70.0 °
Period: 96.1 minutes
Semi major axis: 6948 km
RCS: Unknown
Launch date: March 3, 2023
Source: United States (US)
Launch site: AIR FORCE WESTERN TEST RANGE (AFWTR)
Your satellite tracking list
Your tracking list is empty




NASA's NSSDC Master Catalog

Two Line Element Set (TLE):
1 55782U 23028AT  23274.12495371 -.00053435  00000-0 -44408-2 0  9996
2 55782  69.9988 290.0647 0003087 273.8141  86.2666 14.98880408 33628
Source of the keplerian elements: AFSPC